COLIBRI-S (RS67S)

Last updated on Mon Sep 15 2025 00:03:09 GMT+0000 (Coordinated Universal Time)

1 61746U 24199M 25257.23573557 .00011286 00000+0 33525-3 0 9995 2 61746 97.3407 125.3820 0010928 187.6003 172.5077 15.34884158 94900
UTC large
Height (km)
Speed (km/s)
/
Latitude / Longitude
Inclination (degrees)
Orbital Period (minutes)
Azimuth
Elevation
Range (km)
Doppler Factor

Next 0 passes for location: London (51.5072 / 0.1276)

Sorry there are no passes over London.